Temp
25 24 24 24 24 25 24 25 25 25 25 25 25 25 25 25 24 24 24 24 24 24 24 24 24 24 25 25 25 24 24 25 23 25 25 24 23 23 23 22 22 21 22
25 24 24 24 24 24 24 24 25 25 25 25 25 25 25 24 24 24 24 24 24 23 24 24 24 24 24 24 24 24 24 24 24 22 24 24 24 23 22 21 21 21 21
25 24 24 24 24 24 24 24 25 25 25 24 24 24 24 24 24 24 24 24 24 24 23 23 24 24 24 24 24 24 24 23 23 23 23 24 23 23 20 20 20 20 20
25 24 24 25 24 24 25 25 25 25 25 25 25 25 24 25 24 24 24 24 24 24 24 23 23 23 23 24 23 24 23 23 23 23 23 22 22 21 20 19 19 18 18
24 23 24 25 25 25 25 25 25 25 25 25 25 25 24 24 24 24 24 23 23 24 24 23 23 23 23 23 23 23 23 24 24 22 22 22 22 21 20 21 19 20 18
20 25 25 25 25 25 25 25 25 25 25 25 25 24 24 24 24 24 23 23 24 23 23 23 23 22 22 22 23 23 22 22 22 21 22 22 22 21 21 21 20 19 18
20 21 23 25 25 26 26 25 25 25 25 25 24 24 24 23 23 23 22 22 22 22 22 22 22 22 22 22 22 22 22 22 21 21 21 20 20 20 20 20 20 19 19
19 20 23 24 24 25 25 25 25 25 24 24 23 23 22 23 23 22 21 21 21 21 21 21 21 21 21 21 21 21 20 19 19 20 20 19 19 19 20 20 19 18 18
18 22 23 22 23 24 25 25 24 24 22 22 21 20 20 19 19 19 19 19 19 19 19 19 19 19 20 20 20 19 18 17 17 18 19 18 18 18 19 19 19 19 17
19 19 20 20 20 22 23 22 22 21 20 18 18 18 18 18 18 18 18 18 18 18 18 18 17 17 18 18 19 18 16 15 15 15 16 16 17 17 17 18 18 18 16
19 19 19 19 19 19 19 19 19 19 18 17 17 16 16 16 16 16 17 17 17 16 15 15 15 15 16 17 17 16 16 16 16 16 15 15 15 15 16 16 16 16 16
18 18 18 18 18 18 18 17 17 17 16 15 14 14 14 15 15 16 16 16 16 16 15 14 14 14 15 15 15 15 14 14 14 14 14 13 14 14 14 14 14 14 14
17 17 17 17 16 17 17 16 16 16 15 14 14 13 13 13 14 15 15 15 15 15 14 13 13 13 14 14 14 14 15 14 13 13 13 13 13 14 14 14 15 15 15
16 16 16 17 17 17 16 16 15 15 14 14 14 13 13 13 13 13 14 13 13 13 13 13 13 13 13 13 13 13 14 14 14 14 14 14 14 14 14 14 14 15 15
15 15 16 16 16 16 16 15 15 15 15 15 15 15 14 13 13 13 13 13 13 13 13 13 13 13 13 13 13 13 13 13 14 13 14 13 13 14 14 14 14 14 14
14 14 14 14 14 14 14 13 13 15 15 15 15 15 14 14 13 14 13 13 13 13 13 13 12 12 12 12 12 13 13 13 13 13 13 13 13 13 13 13 13 13 13
15 15 14 14 14 13 13 14 13 12 14 14 14 14 14 14 14 14 14 13 13 13 13 13 13 13 13 13 13 13 13 13 13 13 13 13 13 13 13 13 13 13 12
15 15 15 15 15 14 14 14 14 14 13 13 14 14 14 15 15 15 14 14 14 14 14 14 14 13 13 13 13 13 13 13 13 13 13 13 13 13 12 12 12 12 12
17 17 17 16 16 16 15 15 15 15 15 15 15 15 15 15 15 16 16 16 16 15 15 15 15 14 14 14 14 13 13 13 13 13 13 13 13 12 12 12 12 12 11
18 18 18 18 17 16 16 16 15 15 16 16 16 16 16 16 16 16 16 16 16 16 16 15 16 15 15 14 14 14 14 14 14 13 13 13 13 12 12 12 12 11 11
18 18 18 18 17 17 17 17 16 16 17 17 17 17 17 17 17 17 17 16 16 16 16 16 15 15 15 15 15 14 14 14 14 14 13 13 13 13 12 12 12 12 12
18 19 19 19 19 19 19 18 17 17 17 18 18 17 16 17 17 17 17 17 17 16 16 16 16 16 15 15 15 15 15 15 15 14 14 13 13 12 12 12 12 12 12
19 19 19 19 19 19 19 19 18 18 18 18 18 17 17 17 17 17 17 17 17 17 16 16 16 16 16 16 16 15 15 15 15 15 14 14 13 13 12 12 12 12 12
19 19 19 19 19 19 19 19 19 19 18 18 17 18 18 17 18 18 17 16 16 16 16 15 15 15 15 15 15 15 15 15 15 15 14 14 14 13 12 12 12 12 12
19 19 18 18 19 19 19 19 19 18 18 19 18 17 17 17 17 17 16 16 15 15 15 14 14 14 14 14 14 14 15 15 15 15 14 13 13 13 12 12 12 12 11
18 18 18 19 18 19 19 19 19 19 18 18 18 17 16 16 16 16 15 15 15 14 14 13 13 12 12 12 13 13 14 14 14 14 13 13 12 12 12 11 11 11 11
Height
815 818 821 824 827 831 834 836 837 838 838 839 839 839 840 841 841 840 840 841 841 841 841 841 841 841 841 841 840 839 838 837 838 835 835 835 834 834 834 834 834 833 832
811 815 817 820 824 827 830 832 834 836 837 838 838 839 839 839 840 840 840 840 840 840 840 840 839 840 839 838 838 837 837 836 836 835 834 833 833 832 832 833 833 833 831
806 809 812 815 818 820 824 829 832 833 835 836 837 838 838 838 838 838 838 839 839 839 839 839 839 838 837 836 835 835 834 834 833 832 832 832 832 830 830 831 831 830 829
798 803 804 808 812 816 819 823 827 831 833 834 835 835 835 836 836 836 837 837 838 838 838 837 837 836 835 835 834 833 832 830 829 829 829 829 829 829 829 828 828 828 828
797 800 802 803 807 811 815 819 822 825 828 830 832 832 833 833 834 834 833 833 834 834 834 835 833 833 832 831 830 829 829 828 827 826 826 826 826 827 827 825 825 825 825
801 798 798 800 802 805 808 813 817 820 824 827 829 830 830 831 829 830 830 830 830 830 830 831 831 830 829 828 827 826 826 826 826 825 824 824 824 823 823 823 823 824 825
799 801 798 797 798 800 804 807 812 815 820 823 824 826 826 827 826 826 826 827 827 827 827 827 827 827 826 825 825 823 822 822 821 821 821 821 821 821 822 822 821 820 820
790 800 792 794 796 797 801 804 809 812 816 818 820 821 821 822 822 822 823 823 824 825 825 825 825 824 824 824 823 821 821 820 820 819 819 819 819 819 819 819 819 820 819
786 794 790 790 789 795 795 800 806 808 810 814 816 818 819 820 820 820 821 822 822 823 823 823 823 823 822 822 820 820 820 820 820 820 819 820 819 819 818 818 818 817 818
786 781 787 786 786 792 791 797 800 804 808 814 816 818 818 819 820 820 820 821 820 821 821 822 822 823 822 821 820 819 820 821 820 820 820 821 819 818 818 818 818 816 817
786 782 787 789 787 786 795 799 803 805 808 814 816 817 818 819 819 820 819 820 820 821 822 822 823 822 822 822 822 823 822 821 820 819 818 819 820 819 817 817 817 817 818
786 788 785 792 791 793 796 801 804 808 810 815 817 817 819 820 819 820 819 820 821 822 823 824 824 824 824 824 823 822 823 824 824 824 823 823 824 822 819 820 819 817 819
790 789 789 793 795 798 802 806 807 810 813 816 818 818 820 820 820 820 821 821 822 822 823 824 825 826 826 826 825 824 823 825 827 828 830 829 827 825 823 822 821 820 820
791 793 793 794 794 796 801 807 812 816 817 817 818 819 820 821 821 822 822 824 825 825 826 826 827 828 828 827 827 827 827 828 829 829 829 828 829 828 827 825 824 823 821
790 793 795 797 798 802 803 808 813 816 818 818 818 818 819 821 822 822 823 825 828 829 829 829 829 829 829 831 831 831 831 830 830 829 830 830 831 831 829 828 827 826 824
790 793 798 799 801 804 806 809 813 816 818 819 819 819 821 823 824 824 825 826 827 829 831 831 831 831 831 832 831 833 834 832 832 832 831 832 832 832 830 829 829 827 827
795 797 799 803 803 804 809 809 808 817 818 819 820 822 824 826 825 827 827 827 829 829 830 832 832 832 833 833 834 834 835 835 834 833 834 833 833 835 832 831 829 828 827
802 803 803 803 806 808 811 813 816 815 817 820 822 821 826 828 826 826 828 829 830 829 830 833 833 834 834 834 834 835 835 838 837 835 835 835 835 835 834 832 830 828 828
804 805 807 807 809 811 814 815 817 818 819 820 821 822 825 825 828 829 829 829 829 831 829 830 831 833 833 835 836 836 836 838 838 837 836 836 836 836 834 833 832 830 829
804 805 805 809 811 810 811 815 817 820 820 821 821 824 825 826 827 830 829 830 831 831 830 830 829 831 833 834 834 835 838 837 838 837 836 835 836 836 835 833 831 831 831
806 807 806 810 810 810 811 813 817 819 822 823 823 824 825 827 827 828 828 830 832 831 831 831 832 832 834 833 834 836 836 835 835 835 835 835 835 834 833 833 832 830 829
807 808 806 809 811 810 809 811 814 816 820 820 823 824 825 827 828 829 828 828 830 832 831 831 832 833 834 832 832 833 834 834 833 832 833 834 833 832 831 831 830 828 827
805 806 808 810 812 810 809 811 812 813 816 818 822 824 824 825 827 827 825 827 828 830 831 832 832 832 830 829 830 831 831 831 831 831 831 832 831 830 829 829 828 827 826
805 805 807 808 809 808 809 810 811 812 813 816 820 822 822 822 823 822 823 827 828 829 830 830 829 827 827 827 828 828 828 828 827 828 828 828 828 828 828 826 826 825 825
802 803 803 803 804 805 807 809 809 810 811 814 817 819 819 819 821 822 823 826 827 828 829 828 827 827 826 826 825 824 823 824 825 825 825 827 826 827 827 826 825 824 823
800 802 801 801 800 802 805 807 808 809 810 811 813 816 818 818 818 821 821 823 825 827 827 827 827 826 825 824 822 821 821 820 821 823 824 822 826 822 825 824 822 822 821
Wind_Speed
35 33 30 30 27 24 20 17 15 16 15 14 10 10 10 11 10 11 9 9 11 11 11 11 11 9 9 8 5 4 2 1 3 3 3 4 6 8 6 4 5 4 3
35 33 32 28 26 26 25 21 17 16 14 12 12 11 10 11 12 12 11 9 9 10 11 10 10 9 8 8 9 7 6 6 4 5 6 5 4 7 11 11 9 6 3
35 37 35 32 30 29 27 24 21 20 18 15 15 16 15 14 12 14 13 11 11 11 10 10 11 11 11 10 9 9 9 8 8 7 6 6 4 8 16 14 12 9 7
38 37 37 34 31 29 28 26 24 24 21 20 20 18 18 15 13 13 14 13 13 13 10 9 10 11 12 12 12 12 11 9 8 9 7 3 2 6 16 18 16 13 10
34 32 35 35 31 29 28 27 25 25 27 25 21 20 18 17 16 13 13 15 15 14 13 11 9 8 8 10 11 13 13 14 10 10 7 5 4 7 10 14 15 14 10
13 38 37 35 34 32 30 28 25 28 28 23 22 19 16 14 13 15 15 13 10 12 10 10 8 9 10 6 5 7 8 10 10 8 10 8 7 7 7 8 10 8 4
25 21 24 30 34 33 30 28 27 25 22 18 17 16 15 12 13 16 15 12 9 7 8 9 9 11 11 11 8 7 7 8 10 11 10 8 6 6 6 9 15 13 13
19 17 13 22 27 30 28 23 22 22 17 15 13 12 12 14 16 16 13 11 9 8 8 10 11 11 9 7 6 5 4 4 3 4 5 5 2 2 5 6 5 1 5
24 27 18 13 19 27 23 22 20 16 15 13 9 7 6 7 4 4 5 6 7 7 6 6 5 4 4 5 4 3 8 10 11 10 9 9 8 8 6 1 3 3 3
18 19 5 6 8 21 16 16 14 13 10 9 8 6 5 3 2 3 3 6 8 7 6 3 2 1 2 4 1 9 15 11 11 10 10 9 10 10 10 11 8 8 4
10 14 15 13 11 13 15 14 14 14 13 11 11 10 8 7 6 5 6 5 7 7 3 2 1 3 2 3 5 6 8 11 11 10 7 5 6 8 8 6 6 7 4
17 19 14 14 15 15 16 15 15 16 16 15 14 15 13 11 9 8 9 8 7 7 7 6 7 7 5 5 5 7 6 3 6 5 7 7 6 8 10 9 9 9 8
16 19 19 19 19 17 17 18 17 16 18 16 15 16 13 13 13 11 10 10 9 12 11 12 13 12 12 11 11 9 8 8 7 7 7 6 7 8 9 10 11 8 7
18 18 18 18 19 18 16 15 15 14 16 15 15 14 11 9 9 10 12 12 12 13 13 12 11 10 10 11 11 12 13 11 10 9 8 8 7 7 9 9 9 10 7
17 16 15 16 16 16 16 15 13 11 11 11 12 11 9 9 10 11 12 12 10 10 10 11 11 11 12 12 13 13 12 12 13 11 10 10 8 8 11 10 11 12 12
16 16 15 15 16 16 18 19 15 13 9 8 9 4 12 14 15 15 14 13 12 10 10 11 10 8 9 10 11 11 10 10 11 9 9 8 8 9 10 10 10 9 8
14 16 17 16 16 17 17 20 22 17 16 16 16 16 14 15 14 12 11 9 8 8 9 7 8 9 9 8 7 8 8 8 9 10 10 11 12 12 14 11 11 10 10
12 12 12 14 16 16 17 18 20 21 19 16 14 14 12 11 11 9 7 5 5 5 4 3 4 6 7 8 7 7 8 7 7 8 7 7 7 9 13 13 10 8 8
12 13 13 14 14 14 15 15 14 16 16 15 13 12 11 10 10 11 14 15 14 12 11 2 7 5 5 6 7 5 5 4 4 4 5 5 4 6 10 8 7 6 7
10 10 10 12 14 14 13 13 12 12 13 14 14 13 12 9 8 7 9 10 8 8 8 6 6 7 8 8 8 5 3 1 3 2 2 3 5 5 6 6 7 6 6
10 9 8 7 9 12 17 19 14 15 15 13 11 10 8 7 10 10 8 8 5 6 7 7 6 5 6 9 7 5 2 2 4 6 6 3 4 5 4 4 4 5 7
9 12 9 9 12 13 14 13 20 21 17 15 12 9 8 8 7 13 11 10 8 5 4 4 4 1 5 10 8 8 8 6 5 5 8 6 6 6 8 9 8 8 9
8 8 10 10 13 13 12 10 10 19 22 19 16 13 14 12 10 9 12 8 9 8 7 7 4 2 3 2 7 9 9 11 10 7 7 4 4 5 5 5 7 9 9
6 6 9 12 16 14 14 15 12 10 19 21 20 15 9 8 4 9 11 9 7 6 5 5 4 4 2 3 12 16 17 15 12 12 9 7 4 6 6 7 9 10 11
10 9 9 10 24 21 16 13 15 13 15 16 20 16 14 10 13 15 16 15 12 9 7 4 1 3 5 4 3 4 14 20 18 14 11 6 1 6 9 9 12 12 14
13 13 13 12 20 26 21 20 18 15 17 21 22 17 13 15 18 17 15 12 8 4 2 5 7 9 10 12 12 12 12 12 21 16 10 5 10 4 9 10 10 11 10
Wind_Direction
206 205 199 200 202 204 204 210 206 207 207 211 224 209 208 227 231 239 245 254 264 264 265 278 278 285 294 295 290 294 298 288 212 248 195 224 215 239 222 203 160 142 80
205 206 204 202 207 210 211 214 216 212 216 225 213 215 221 230 230 230 239 255 262 266 278 275 274 284 276 274 276 271 285 298 283 244 224 220 194 233 220 192 181 171 154
204 206 204 204 207 211 215 219 222 222 225 227 221 224 224 236 236 236 245 252 258 260 266 273 277 278 275 269 284 275 278 266 260 260 268 213 217 198 188 194 188 195 201
200 204 202 204 208 210 210 214 221 219 223 223 224 231 237 243 245 241 243 248 259 259 262 265 279 280 284 286 286 287 282 272 253 251 269 272 204 184 200 200 211 214 204
202 202 205 207 210 213 214 217 224 226 230 227 231 235 241 245 249 250 252 251 253 254 255 259 275 284 284 286 291 296 296 278 263 263 267 273 263 205 214 236 236 220 231
229 210 208 209 207 211 213 217 229 228 232 233 234 238 240 249 261 252 258 255 263 242 240 246 261 252 268 271 291 294 290 284 278 258 267 264 270 247 246 225 216 212 250
309 246 213 208 209 209 212 212 215 211 215 222 232 239 243 250 254 254 250 248 240 235 245 254 250 261 270 273 282 291 283 278 262 251 243 238 241 233 249 243 234 245 237
283 242 189 213 220 218 214 212 224 218 217 225 227 235 244 249 245 248 252 246 231 236 240 250 254 259 265 276 296 299 261 216 213 210 188 164 160 240 240 246 264 227 129
229 241 221 211 208 218 198 206 211 195 198 217 208 213 235 257 246 199 203 204 217 222 222 227 233 254 282 298 293 236 146 124 120 124 126 105 90 72 54 210 300 344 121
186 206 212 185 209 199 196 201 182 179 160 141 129 126 148 164 223 205 207 211 191 193 195 193 206 282 1 29 347 165 145 143 148 125 109 103 89 72 64 60 60 64 74
128 134 165 144 155 145 146 143 141 138 135 134 128 116 113 111 107 109 122 143 175 172 143 97 73 105 119 101 102 126 140 154 167 161 146 97 75 87 81 72 58 57 70
139 141 140 134 128 128 137 131 133 136 132 133 123 103 94 99 105 97 95 105 125 131 105 89 75 74 73 67 82 87 85 143 160 138 115 103 80 70 71 67 70 75 73
116 114 119 115 115 120 126 133 131 141 141 134 127 117 108 97 86 88 91 94 97 110 112 109 103 94 85 81 78 80 101 108 115 95 74 66 62 75 68 71 57 50 50
123 123 124 122 117 114 116 119 125 133 134 135 136 128 120 107 103 107 100 104 110 111 114 114 104 95 87 85 93 93 95 97 99 94 84 79 70 74 47 36 27 19 27
130 131 126 127 125 124 123 121 123 121 139 141 136 129 130 124 116 111 111 111 111 106 116 116 110 104 95 88 83 81 83 85 75 67 72 71 69 55 46 43 38 44 49
132 133 136 132 131 130 127 119 114 118 128 131 133 126 121 119 115 112 112 112 111 109 113 111 107 101 97 94 91 82 74 70 69 66 57 40 31 24 25 29 27 26 32
132 131 130 130 131 133 135 130 118 109 111 112 114 116 117 120 115 107 103 109 106 100 102 105 109 109 110 99 84 74 70 62 60 70 69 59 54 47 33 17 19 22 42
145 145 147 140 137 137 135 131 133 132 129 125 124 122 124 121 108 99 91 102 112 97 88 109 114 119 113 95 89 85 84 91 76 67 57 54 43 34 25 21 27 39 31
140 141 147 150 150 147 146 142 140 139 136 134 132 129 125 118 108 93 92 93 98 97 80 95 210 188 156 120 99 101 104 85 84 74 57 62 43 23 21 20 25 23 18
167 162 157 165 162 161 162 165 152 151 145 139 144 145 145 144 141 133 118 120 107 88 74 108 107 171 184 166 134 119 144 199 218 230 170 50 17 1 10 22 11 6 356
159 162 161 188 182 194 198 198 186 178 174 173 176 179 168 161 174 171 162 163 132 108 76 78 82 90 169 188 188 197 189 232 293 255 232 257 304 301 306 325 337 336 332
208 189 179 190 156 142 148 163 193 194 196 188 188 192 191 193 188 190 187 188 185 168 134 83 66 137 236 230 227 207 212 237 268 240 221 237 263 275 281 274 283 292 304
218 217 204 208 200 170 159 154 154 189 192 192 189 183 181 195 211 218 218 215 206 210 210 216 220 283 314 333 241 221 223 233 232 219 213 239 294 295 306 306 294 303 305
214 217 233 241 215 202 201 190 182 169 199 208 199 193 192 160 182 233 206 212 191 174 177 207 133 133 97 280 236 235 243 234 254 252 248 249 280 269 277 304 312 295 303
226 248 269 285 209 210 215 222 209 198 180 190 195 189 178 164 149 147 142 142 135 128 118 115 78 358 344 344 357 323 254 249 249 241 252 243 311 314 291 304 313 307 304
245 262 276 279 224 215 215 221 222 219 202 191 187 185 177 167 156 155 153 154 151 130 35 9 2 353 339 327 318 301 295 264 230 227 219 252 286 238 285 298 315 308 296